Japanese version Home page |
Updated on August 15, 2016 |
Profile
|
Orbital ElementsEpoch 2004 Mar. 16.0 TT = JDT 2453080.5 T 2004 Mar. 24.23150 TT MPCW q 2.3041932 (2000.0) P Q n 0.07632539 Peri. 137.30740 +0.81659679 -0.56943613 a 5.5041469 Node 257.63810 +0.50008741 +0.77963759 e 0.5813714 Incl. 5.54601 +0.28823994 +0.26059111 P 12.91 From 66 observations 2003 Sept. 18-2016 Aug. 14, mean residual 0".5.
|
Finding Charts
|
Magnitudes Graphm1 = 12.5 + 5 log d + 10.0 log r
|
The orbital elements are published on M.P.E.C. 2016-P122.
|